KE2HEH Weather Reports


time (UTC)temp
C
wind
direction
speed
KPH
gust
KPH
rain 1hr
cm
rain 24hr
cm
rain mn
cm
humidity
%
barometer
mb
20260502170448 12 215 9.7 11.3 0.00 0.03 0.03 82 1012.4
20260502163931 12 215 9.7 11.3 0.00 0.03 0.03 84 1012.7
20260502163427 12 216 8.0 14.5 0.00 0.03 0.03 84 1012.5
20260502162925 12 214 6.4 16.1 0.00 0.03 0.03 85 1012.8
20260502162422 12 203 9.7 14.5 0.00 0.03 0.03 84 1012.7
20260502161919 12 208 9.7 17.7 0.00 0.03 0.03 84 1012.6
20260502161415 12 216 6.4 14.5 0.00 0.03 0.03 84 1012.7
20260502160913 12 198 8.0 11.3 0.00 0.03 0.03 85 1012.6
20260502160411 12 216 8.0 12.9 0.00 0.03 0.03 85 1012.7
20260502152340 11 208 6.4 6.4 0.00 0.03 0.03 86 1012.7
20260502151838 11 206 6.4 9.7 0.00 0.03 0.03 86 1012.8
20260502151334 11 210 4.8 6.4 0.00 0.03 0.03 86 1012.8
20260502150832 11 208 3.2 6.4 0.00 0.03 0.03 86 1012.9
20260502150328 11 208 8.0 9.7 0.00 0.03 0.03 86 1012.8
20260502130716 11 223 4.8 4.8 0.00 0.03 0.03 91 1013.0
20260502130214 11 202 1.6 1.6 0.00 0.03 0.03 92 1013.2
20260502123700 11 230 3.2 4.8 0.00 0.03 0.03 93 1012.8
20260502123156 11 213 0.0 1.6 0.00 0.03 0.03 93 1012.9
20260502122653 11 214 1.6 3.2 0.00 0.03 0.03 93 1012.9
20260502122149 10 212 0.0 1.6 0.00 0.03 0.03 93 1013.0
20260502121648 10 217 3.2 6.4 0.00 0.03 0.03 93 1013.1
20260502121145 10 229 1.6 3.2 0.00 0.03 0.03 93 1013.0
20260502120641 11 214 0.0 1.6 0.00 0.03 0.03 93 1013.0
20260502120138 10 212 1.6 6.4 0.00 0.03 0.03 93 1013.0
20260502115636 10 214 4.8 6.4 0.00 0.03 0.03 93 1013.0
20260502115131 10 211 3.2 6.4 0.00 0.03 0.03 93 1013.0
20260502114627 10 212 3.2 6.4 0.00 0.03 0.03 93 1013.2
20260502114126 10 214 4.8 6.4 0.00 0.03 0.03 93 1013.1
20260502113623 10 218 6.4 9.7 0.00 0.03 0.03 93 1013.0
20260502113121 10 221 3.2 6.4 0.00 0.03 0.03 93 1013.1
20260502112619 10 203 4.8 11.3 0.00 0.03 0.03 93 1013.1
20260502112115 10 216 6.4 9.7 0.00 0.03 0.03 93 1012.7
20260502111613 10 208 8.0 12.9 0.00 0.03 0.03 93 1012.6
20260502111110 10 212 9.7 11.3 0.00 0.03 0.03 93 1012.7
20260502110608 10 206 8.0 11.3 0.00 0.03 0.03 92 1012.6
20260502110105 10 210 6.4 9.7 0.00 0.03 0.03 92 1012.3
20260502105603 10 213 9.7 12.9 0.00 0.03 0.03 92 1012.5
20260502105100 10 207 8.0 11.3 0.00 0.03 0.03 92 1012.3
20260502104556 10 220 3.2 9.7 0.00 0.03 0.03 92 1012.2
20260502104054 10 206 6.4 9.7 0.13 0.03 0.03 91 1012.3
20260502103552 10 213 1.6 4.8 0.13 0.03 0.03 91 1012.3
20260502103050 10 214 1.6 6.4 0.00 0.00 0.00 91 1012.5
20260502102545 10 216 4.8 9.7 0.00 0.00 0.00 91 1012.5
20260502102043 10 209 6.4 11.3 0.00 0.00 0.00 90 1012.7
20260502101541 10 213 4.8 6.4 0.00 0.00 0.00 90 1012.6
20260502101039 10 216 4.8 9.7 0.00 0.00 0.00 90 1012.6
20260502100537 10 214 4.8 11.3 0.00 0.00 0.00 90 1012.6
20260502091512 10 215 11.3 17.7 0.00 0.00 0.00 90 1012.2
20260502091009 10 208 12.9 16.1 0.00 0.00 0.00 90 1012.4
20260502090506 10 209 9.7 16.1 0.00 0.00 0.00 89 1012.4
20260502071400 10 215 12.9 16.1 0.00 0.00 0.00 92 1012.7
20260502070859 10 228 12.9 16.1 0.00 0.00 0.00 92 1012.6
20260502070356 10 195 9.7 14.5 0.00 0.00 0.00 93 1012.8
20260502065855 10 225 9.7 12.9 0.00 0.00 0.00 93 1012.9
20260502065352 10 210 9.7 16.1 0.00 0.00 0.00 93 1012.8
20260502064850 10 217 12.9 20.9 0.00 0.00 0.00 92 1012.9
20260502064348 10 218 6.4 14.5 0.00 0.00 0.00 92 1012.9
20260502063845 10 203 12.9 22.5 0.00 0.00 0.00 92 1012.9
20260502063343 10 212 12.9 20.9 0.00 0.00 0.00 92 1012.7
20260502062840 10 220 11.3 22.5 0.00 0.00 0.00 92 1013.0
20260502062337 10 213 17.7 25.7 0.00 0.00 0.00 92 1013.0
20260502061836 10 218 20.9 25.7 0.00 0.00 0.00 92 1012.7
20260502061333 10 219 20.9 25.7 0.00 0.00 0.00 91 1013.1
20260502060829 10 206 16.1 25.7 0.00 0.00 0.00 91 1013.2
20260502060324 10 224 14.5 27.4 0.00 0.00 0.00 91 1013.0
20260502055822 10 210 24.1 29.0 0.00 0.00 0.00 90 1012.8
20260502055320 10 253 12.9 22.5 0.00 0.00 0.00 90 1013.1
20260502054819 10 212 8.0 17.7 0.00 0.00 0.00 90 1013.1
20260502054316 10 210 11.3 20.9 0.00 0.00 0.00 89 1012.9
20260502053814 10 219 9.7 17.7 0.00 0.00 0.00 89 1012.8
20260502053311 10 232 17.7 20.9 0.00 0.00 0.00 89 1012.8
20260502052809 10 224 17.7 22.5 0.00 0.00 0.00 88 1012.5
20260502052306 10 220 11.3 17.7 0.00 0.00 0.00 88 1012.7
20260502051804 11 208 9.7 11.3 0.00 0.00 0.00 87 1012.8
20260502051302 11 214 8.0 11.3 0.00 0.00 0.00 87 1012.9
20260502050758 11 214 6.4 11.3 0.00 0.00 0.00 87 1012.8
20260502050254 11 209 8.0 14.5 0.00 0.00 0.00 86 1013.0
20260502045752 10 218 8.0 16.1 0.00 0.00 0.00 86 1012.9
20260502045248 10 212 11.3 17.7 0.00 0.00 0.00 85 1012.8
20260502044745 10 211 20.9 25.7 0.00 0.00 0.00 85 1012.7
20260502044241 11 201 20.9 24.1 0.00 0.00 0.00 85 1013.0
20260502043739 11 201 14.5 17.7 0.00 0.00 0.00 85 1012.8
20260502043236 11 207 12.9 16.1 0.00 0.00 0.00 85 1012.9
20260502042736 11 206 16.1 17.7 0.00 0.00 0.00 85 1012.6
20260502042233 11 217 14.5 24.1 0.00 0.00 0.00 84 1012.8
20260502041731 11 197 17.7 22.5 0.00 0.00 0.00 84 1012.7
20260502041228 11 204 20.9 25.7 0.00 0.00 0.00 84 1012.8
20260502040725 11 200 24.1 29.0 0.00 0.00 0.00 84 1013.1
20260502040222 11 192 24.1 29.0 0.00 0.00 0.00 83 1013.1
20260502035718 11 208 27.4 33.8 0.00 0.00 0.00 83 1012.9
20260502035215 11 202 25.7 29.0 0.00 0.00 0.00 83 1012.8
20260502034712 11 197 27.4 33.8 0.00 0.00 0.00 82 1012.9
20260502034210 11 208 24.1 30.6 0.00 0.00 0.00 81 1013.0
20260502033708 11 207 27.4 30.6 0.00 0.00 0.00 81 1012.7
20260502033206 11 204 25.7 30.6 0.00 0.00 0.00 81 1012.9
20260502032702 11 189 29.0 35.4 0.00 0.00 0.00 81 1012.6
20260502032158 11 220 29.0 35.4 0.00 0.00 0.00 81 1012.7
20260502031656 11 204 25.7 37.0 0.00 0.00 0.00 81 1012.7
20260502031154 11 202 27.4 33.8 0.00 0.00 0.00 81 1013.0
20260502030652 11 222 27.4 35.4 0.00 0.00 0.00 81 1013.0
20260502030150 11 227 24.1 33.8 0.00 0.00 0.00 81 1013.1
20260502025647 11 219 29.0 37.0 0.00 0.00 0.00 82 1013.1
20260502025145 11 199 25.7 33.8 0.00 0.00 0.00 83 1013.2
20260502024642 11 201 30.6 35.4 0.00 0.00 0.00 84 1013.2
20260502024140 11 202 33.8 37.0 0.00 0.00 0.00 84 1013.3
20260502023638 11 199 29.0 37.0 0.00 0.00 0.00 85 1013.0
20260502023135 10 206 30.6 35.4 0.00 0.00 0.00 85 1013.0
20260502022632 10 208 24.1 37.0 0.00 0.00 0.00 86 1013.1
20260502022129 10 191 19.3 33.8 0.00 0.00 0.00 86 1013.1
20260502021626 10 203 22.5 35.4 0.00 0.00 0.00 86 1013.0
20260502021123 10 224 19.3 35.4 0.00 0.00 0.00 86 1013.1
20260502020621 10 178 22.5 38.6 0.00 0.00 0.00 86 1013.1
20260502020117 10 191 24.1 33.8 0.00 0.00 0.00 86 1013.1
20260502015615 10 202 22.5 37.0 0.00 0.00 0.00 86 1013.0
20260502015112 10 227 20.9 37.0 0.00 0.00 0.00 86 1013.2
20260502014609 10 195 29.0 38.6 0.00 0.00 0.00 86 1013.1
20260502014106 10 222 16.1 38.6 0.00 0.00 0.00 86 1013.0
20260502013601 10 197 25.7 37.0 0.00 0.00 0.00 86 1012.9
20260502013057 10 231 19.3 35.4 0.00 0.00 0.00 86 1013.2
20260502012555 10 220 19.3 35.4 0.00 0.00 0.00 86 1012.9
20260502012053 10 194 24.1 33.8 0.00 0.00 0.00 86 1012.8
20260502011549 10 204 24.1 38.6 0.00 0.00 0.00 85 1012.8
20260502011045 10 190 29.0 40.2 0.00 0.00 0.00 85 1012.8
20260502010543 10 223 22.5 30.6 0.00 0.00 0.00 85 1012.7
20260502010039 10 196 24.1 33.8 0.00 0.00 0.00 84 1012.7
20260502005537 10 219 17.7 35.4 0.00 0.00 0.00 84 1012.6
20260502005035 11 210 27.4 35.4 0.00 0.00 0.00 83 1012.7
20260502004530 11 213 33.8 38.6 0.00 0.00 0.00 82 1012.8
20260502004027 11 208 27.4 33.8 0.00 0.00 0.00 81 1012.9
20260502003525 11 196 17.7 30.6 0.00 0.00 0.00 81 1012.6
20260502003021 11 177 16.1 30.6 0.00 0.00 0.00 81 1012.9
20260502002518 11 184 27.4 35.4 0.00 0.00 0.00 81 1012.9
20260502002016 11 186 33.8 38.6 0.00 0.00 0.00 82 1012.7
20260502001513 11 194 19.3 27.4 0.00 0.00 0.00 83 1012.6
20260502001010 11 211 20.9 29.0 0.00 0.00 0.00 83 1012.6
20260502000509 11 208 20.9 29.0 0.00 0.00 0.00 83 1012.4
20260502000005 11 210 17.7 29.0 0.00 0.00 0.00 83 1012.3
20260501235501 11 189 19.3 25.7 0.00 0.00 0.00 83 1012.4
20260501234955 11 195 19.3 29.0 0.00 0.00 0.00 83 1012.1
20260501234452 11 188 22.5 25.7 0.00 0.00 0.00 84 1012.2
20260501233951 11 210 20.9 29.0 0.00 0.00 0.00 83 1012.3
20260501233449 11 159 20.9 29.0 0.00 0.00 0.00 83 1012.2
20260501232944 11 225 19.3 27.4 0.00 0.00 0.00 83 1012.4
20260501232442 11 208 16.1 27.4 0.00 0.00 0.00 82 1012.3
20260501231938 11 220 16.1 29.0 0.00 0.00 0.00 82 1012.3
20260501231437 11 174 24.1 29.0 0.00 0.00 0.00 81 1012.3
20260501230935 11 210 17.7 29.0 0.00 0.00 0.00 81 1012.1
20260501230434 11 202 22.5 30.6 0.00 0.00 0.00 81 1012.1
20260501225930 11 205 19.3 29.0 0.00 0.00 0.00 80 1012.1
20260501225428 11 200 16.1 24.1 0.00 0.00 0.00 80 1011.9
20260501224924 11 180 14.5 29.0 0.00 0.00 0.00 80 1012.0
20260501224421 11 180 17.7 27.4 0.00 0.00 0.00 80 1012.2
20260501223918 11 199 20.9 29.0 0.00 0.00 0.00 80 1012.0
20260501223414 11 181 25.7 27.4 0.00 0.00 0.00 79 1011.9
20260501222910 11 172 20.9 27.4 0.00 0.00 0.00 79 1012.2
20260501222408 11 213 20.9 30.6 0.00 0.00 0.00 79 1012.4
20260501221904 11 214 11.3 33.8 0.00 0.00 0.00 79 1012.2
20260501221401 11 200 22.5 29.0 0.00 0.00 0.00 78 1012.1
20260501220859 11 192 19.3 27.4 0.00 0.00 0.00 78 1012.4
20260501220356 11 192 19.3 27.4 0.00 0.00 0.00 78 1012.2
20260501215852 11 190 19.3 27.4 0.00 0.00 0.00 78 1012.2
20260501215349 11 168 22.5 35.4 0.00 0.00 0.00 78 1012.3
20260501214844 11 191 20.9 30.6 0.00 0.00 0.00 78 1012.3
20260501214340 11 206 25.7 29.0 0.00 0.00 0.00 77 1012.3
20260501213836 11 179 20.9 30.6 0.00 0.00 0.00 78 1012.4
20260501213333 11 175 19.3 30.6 0.00 0.00 0.00 78 1012.2
20260501212828 11 197 19.3 27.4 0.00 0.00 0.00 77 1012.0
20260501212325 12 181 24.1 33.8 0.00 0.00 0.00 77 1012.3
20260501211823 11 197 19.3 29.0 0.00 0.00 0.00 76 1012.2
20260501211320 11 196 17.7 30.6 0.00 0.00 0.00 75 1012.2
20260501210817 12 183 17.7 35.4 0.00 0.00 0.00 75 1012.4
20260501210314 12 203 14.5 35.4 0.00 0.00 0.00 75 1012.4
20260501205810 12 184 19.3 33.8 0.00 0.00 0.00 74 1012.3
20260501205307 12 157 24.1 38.6 0.00 0.00 0.00 73 1012.1
20260501204804 12 202 29.0 35.4 0.00 0.00 0.00 71 1012.2
20260501204300 12 187 22.5 35.4 0.00 0.00 0.00 71 1012.2
20260501203756 12 159 24.1 38.6 0.00 0.00 0.00 69 1012.3
20260501203254 11 174 30.6 41.8 0.00 0.00 0.00 69 1012.3
20260501202751 12 194 27.4 35.4 0.00 0.00 0.00 68 1012.3
20260501202248 12 201 30.6 41.8 0.00 0.00 0.00 70 1012.1
20260501201745 12 229 22.5 43.5 0.00 0.00 0.00 70 1012.1
20260501201241 12 206 20.9 30.6 0.00 0.00 0.00 70 1012.1
20260501200738 12 226 22.5 30.6 0.00 0.00 0.00 68 1011.9
20260501200235 12 203 17.7 33.8 0.00 0.00 0.00 70 1012.1
20260501195733 12 205 19.3 27.4 0.00 0.00 0.00 67 1012.2
20260501195228 13 201 24.1 30.6 0.00 0.00 0.00 68 1012.2
20260501194725 12 206 22.5 29.0 0.00 0.00 0.00 68 1012.2
20260501194220 13 202 24.1 29.0 0.00 0.00 0.00 68 1012.2
20260501193717 12 190 19.3 27.4 0.00 0.00 0.00 69 1012.1
20260501193216 13 221 14.5 29.0 0.00 0.00 0.00 69 1012.1
20260501192713 12 220 24.1 29.0 0.00 0.00 0.00 69 1012.3
20260501192210 12 209 27.4 29.0 0.00 0.00 0.00 69 1012.3
20260501191707 13 204 20.9 29.0 0.00 0.00 0.00 70 1012.4
20260501191205 13 208 20.9 25.7 0.00 0.00 0.00 67 1012.5
20260501190701 13 215 11.3 25.7 0.00 0.00 0.00 67 1012.6
20260501190156 15 197 17.7 27.4 0.00 0.00 0.00 65 1012.7
20260501185652 15 210 12.9 20.9 0.00 0.00 0.00 55 1012.5
20260501185148 16 215 6.4 12.9 0.00 0.00 0.00 50 1012.4
20260501184645 15 209 9.7 12.9 0.00 0.00 0.00 51 1012.6
20260501184145 15 224 6.4 11.3 0.00 0.00 0.00 51 1012.6
20260501183642 15 218 8.0 12.9 0.00 0.00 0.00 58 1012.5
20260501183138 14 212 9.7 16.1 0.00 0.00 0.00 61 1013.0
20260501182635 13 217 12.9 16.1 0.00 0.00 0.00 59 1012.8
20260501182131 14 218 12.9 16.1 0.00 0.00 0.00 60 1012.9
20260501181629 13 213 14.5 20.9 0.00 0.00 0.00 64 1013.1
20260501181125 13 204 12.9 20.9 0.00 0.00 0.00 61 1013.0
20260501180624 13 206 14.5 22.5 0.00 0.00 0.00 60 1012.9
20260501180119 13 225 14.5 20.9 0.00 0.00 0.00 62 1013.0
20260501175617 14 220 14.5 20.9 0.00 0.00 0.00 59 1012.8
20260501175113 14 215 14.5 16.1 0.00 0.00 0.00 63 1012.8
20260501174610 13 216 14.5 22.5 0.00 0.00 0.00 63 1013.1
20260501174108 13 225 20.9 22.5 0.00 0.00 0.00 63 1013.1
20260501173605 13 213 17.7 27.4 0.00 0.00 0.00 61 1012.9
20260501173101 12 222 19.3 24.1 0.00 0.00 0.00 67 1013.0
20260501172557 13 201 17.7 25.7 0.00 0.00 0.00 63 1013.1
20260501172053 13 216 12.9 22.5 0.00 0.00 0.00 62 1013.2
20260501171549 12 245 16.1 24.1 0.00 0.00 0.00 66 1013.2